Weather reports worldwide

Advertisment
Bolzano, Italy (16020): temperature & dewpoint: 17.03.2019 10:00:00 - 23.03.2019 10:00:00 (CET)Bolzano, Italy (16020): wind speed: 17.03.2019 10:00:00 - 23.03.2019 10:00:00 (CET)Bolzano, Italy (16020): wind direction: 17.03.2019 10:00:00 - 23.03.2019 10:00:00 (CET)Bolzano, Italy (16020): reduced air pressure: 17.03.2019 10:00:00 - 23.03.2019 10:00:00 (CET)Bolzano, Italy (16020): visibility: 17.03.2019 10:00:00 - 23.03.2019 10:00:00 (CET)Bolzano, Italy (16020): precipitation: 17.03.2019 10:00:00 - 23.03.2019 10:00:00 (CET)
Date & Time tt [°C] td [°C] ff [km/h] ff [kn] dd ppp [hPa] vv [km] rr [mm]
23.03.2019 10:00:00 13,3 -0,3 0 0 N 1028,3 10 -
23.03.2019 09:00:00 12,0 0,0 0 0 N - 10 -
23.03.2019 08:00:00 3,0 -1,0 4 2 - - 10 -
23.03.2019 07:00:00 2,9 -1,1 4 2 - 1030,1 10 0,0
23.03.2019 06:00:00 - - - - - - - -
23.03.2019 05:00:00 - - - - - - - -
23.03.2019 04:00:00 3,8 -0,9 2 1 S 1029,6 - -
23.03.2019 03:00:00 - - - - - - - -
23.03.2019 02:00:00 - - - - - - - -
23.03.2019 01:00:00 5,9 -0,7 2 1 NW 1029,8 - 0,0
23.03.2019 00:00:00 - - - - - - - -
22.03.2019 23:00:00 8,0 0,0 0 0 N - 10 -
22.03.2019 22:00:00 9,1 -0,1 0 0 N 1028,6 10 -
22.03.2019 21:00:00 10,0 0,0 2 1 - - 10 -
22.03.2019 20:00:00 12,0 -1,0 2 1 - - 10 -
22.03.2019 19:00:00 14,7 -0,7 4 2 - 1026,1 10 0,0
22.03.2019 18:00:00 - - - - - - - -
22.03.2019 17:00:00 21,0 -4,0 8 4 S - 10 -
22.03.2019 16:00:00 21,0 -3,9 9 5 S 1025,0 10 -
22.03.2019 15:00:00 20,0 -5,0 8 4 S - 10 -
22.03.2019 14:00:00 19,0 -3,0 8 4 SSW - 10 -
22.03.2019 13:00:00 18,1 -2,7 4 2 - 1028,4 10 0,0
22.03.2019 12:00:00 15,0 -5,0 5 3 - - 10 -
22.03.2019 11:00:00 13,0 -5,0 4 2 - - 10 -
22.03.2019 10:00:00 11,1 -4,4 4 2 - 1032,5 10 -
22.03.2019 09:00:00 7,0 -3,0 4 2 - - 10 -
22.03.2019 08:00:00 2,0 -3,0 0 0 N - 10 -
22.03.2019 07:00:00 2,2 -2,7 0 0 N 1034,7 10 0,0
22.03.2019 06:00:00 - - - - - - - -
22.03.2019 05:00:00 - - - - - - - -
22.03.2019 04:00:00 1,8 -2,6 2 1 S 1033,9 - -
22.03.2019 03:00:00 - - - - - - - -
22.03.2019 02:00:00 - - - - - - - -
22.03.2019 01:00:00 3,2 -2,4 4 2 N 1034,0 - 0,0
22.03.2019 00:00:00 - - - - - - - -
21.03.2019 23:00:00 4,0 -2,0 2 1 - - 10 -
21.03.2019 22:00:00 6,4 -1,8 4 2 - 1032,7 10 -
21.03.2019 21:00:00 - - - - - - - -
21.03.2019 20:00:00 10,0 -1,0 0 0 N - 10 -
21.03.2019 19:00:00 10,6 -1,3 2 1 - 1029,6 10 0,0
21.03.2019 18:00:00 16,0 -1,0 2 1 - - 10 -
21.03.2019 17:00:00 18,0 -5,0 5 3 - - 10 -
21.03.2019 16:00:00 17,2 -6,2 5 3 - 1028,1 10 -
21.03.2019 15:00:00 17,0 -5,0 9 5 S - 10 -
21.03.2019 14:00:00 16,0 -7,0 4 2 - - 10 -
21.03.2019 13:00:00 14,6 -6,0 5 3 - 1031,3 10 0,0
21.03.2019 12:00:00 12,0 -6,0 5 3 - - 10 -
21.03.2019 11:00:00 11,0 -5,0 4 2 - - 10 -
21.03.2019 10:00:00 9,6 -4,9 4 2 - 1034,7 10 -
21.03.2019 09:00:00 6,0 -5,0 4 2 - - 10 -
21.03.2019 08:00:00 0,0 -5,0 0 0 N - 10 -
21.03.2019 07:00:00 0,1 -4,8 4 2 SSE 1035,9 10 0,0
21.03.2019 06:00:00 - - - - - - - -
21.03.2019 05:00:00 - - - - - - - -
21.03.2019 04:00:00 0,5 -5,0 2 1 E 1034,7 - -
21.03.2019 03:00:00 - - - - - - - -
21.03.2019 02:00:00 - - - - - - - -
21.03.2019 01:00:00 2,3 -4,9 4 2 NW 1034,7 - 0,0
21.03.2019 00:00:00 - - - - - - - -
20.03.2019 23:00:00 5,0 -4,0 4 2 - - 10 -
20.03.2019 22:00:00 4,9 -4,5 0 0 N 1032,4 10 -
20.03.2019 21:00:00 9,0 -7,0 5 3 - - 10 -
20.03.2019 20:00:00 11,0 -7,0 9 5 SE - 10 -
20.03.2019 19:00:00 11,5 -7,0 9 5 SSE 1028,5 10 0,0
20.03.2019 18:00:00 14,0 -9,0 5 3 SSE - 10 -
20.03.2019 17:00:00 16,0 -10,0 9 5 SSW - 10 -
20.03.2019 16:00:00 16,6 -10,9 4 2 - 1026,1 10 -
20.03.2019 15:00:00 16,0 -10,0 4 2 - - 10 -
20.03.2019 14:00:00 15,0 -8,0 4 2 - - 10 -
20.03.2019 13:00:00 14,0 -9,4 4 2 - 1029,0 10 0,0
20.03.2019 12:00:00 12,0 -9,0 5 3 - - 10 -
20.03.2019 11:00:00 10,0 -7,0 5 3 - - 10 -
20.03.2019 10:00:00 9,6 -7,9 5 3 - 1031,9 10 -
20.03.2019 09:00:00 6,0 -5,0 2 1 - - 10 -
20.03.2019 08:00:00 0,0 -5,0 4 2 - - 10 -
20.03.2019 07:00:00 0,1 -6,0 2 1 - 1032,3 10 0,0
20.03.2019 06:00:00 - - - - - - - -
20.03.2019 05:00:00 - - - - - - - -
20.03.2019 04:00:00 2,1 -6,2 4 2 NE 1030,5 - -
20.03.2019 03:00:00 - - - - - - - -
20.03.2019 02:00:00 - - - - - - - -
20.03.2019 01:00:00 4,3 -6,4 4 2 SSW 1029,8 - 0,0
20.03.2019 00:00:00 - - - - - - - -
19.03.2019 23:00:00 8,0 -9,0 8 4 N - 10 -
19.03.2019 22:00:00 7,5 -9,3 8 4 N 1027,7 10 -
19.03.2019 21:00:00 10,0 -10,0 15 8 NNW - 10 -
19.03.2019 20:00:00 11,0 -10,0 16 9 NNE - 10 -
19.03.2019 19:00:00 11,0 -10,3 18 10 N 1024,6 10 0,0
19.03.2019 18:00:00 12,0 -11,0 18 10 NNE - 10 -
19.03.2019 17:00:00 14,0 -10,0 15 8 NNE - 10 -
19.03.2019 16:00:00 14,7 -10,7 15 8 NNW 1021,0 10 -
19.03.2019 15:00:00 15,0 -9,0 15 8 NW - 10 -
19.03.2019 14:00:00 15,0 -8,0 21 11 NW - 10 -
19.03.2019 13:00:00 14,1 -9,5 4 2 - 1021,7 10 0,0
19.03.2019 12:00:00 13,0 -7,0 9 5 NNW - 10 -
19.03.2019 11:00:00 10,0 -6,0 4 2 - - 10 -
19.03.2019 10:00:00 9,1 -5,9 0 0 N 1024,3 10 -
19.03.2019 09:00:00 6,0 -4,0 2 1 - - 10 -
19.03.2019 08:00:00 0,0 -4,0 4 2 - - 10 -
19.03.2019 07:00:00 -0,5 -5,2 0 0 N 1024,6 10 0,0
19.03.2019 06:00:00 - - - - - - - -
19.03.2019 05:00:00 - - - - - - - -
19.03.2019 04:00:00 0,9 -5,4 4 2 NE 1023,2 - -
19.03.2019 03:00:00 - - - - - - - -
19.03.2019 02:00:00 - - - - - - - -
19.03.2019 01:00:00 4,7 -6,6 4 2 ENE 1022,4 - 0,0
19.03.2019 00:00:00 - - - - - - - -
18.03.2019 23:00:00 6,0 -7,0 8 4 NNW - 10 -
18.03.2019 22:00:00 6,7 -6,8 11 6 NW 1021,1 15 -
18.03.2019 21:00:00 9,0 -11,0 13 7 N - 10 -
18.03.2019 20:00:00 10,0 -10,0 21 11 NNE - 10 -
18.03.2019 19:00:00 10,1 -9,7 18 10 NNE 1018,5 10 0,0
18.03.2019 18:00:00 11,0 -8,0 16 9 - - 10 -
18.03.2019 17:00:00 13,0 -8,0 16 9 NNE - 10 -
18.03.2019 16:00:00 12,9 -8,3 8 4 - 1015,2 10 -
18.03.2019 15:00:00 14,0 -3,0 8 4 SSW - 10 -
18.03.2019 14:00:00 12,0 -2,0 0 0 N - 10 -
18.03.2019 13:00:00 11,3 -0,5 8 4 WSW 1016,6 10 0,0
18.03.2019 12:00:00 9,0 1,0 11 6 WNW - 10 -
18.03.2019 11:00:00 9,0 -2,0 13 7 N - 10 -
18.03.2019 10:00:00 7,2 -0,3 0 0 N 1018,3 10 -
18.03.2019 09:00:00 6,0 2,0 5 3 - - 10 -
18.03.2019 08:00:00 6,0 2,0 8 4 S - 10 -
18.03.2019 07:00:00 5,7 0,5 16 9 ENE 1017,8 10 -
18.03.2019 06:00:00 - - - - - - - -
18.03.2019 05:00:00 - - - - - - - -
18.03.2019 04:00:00 6,3 1,6 24 13 NW 1014,8 - -
18.03.2019 03:00:00 - - - - - - - -
18.03.2019 02:00:00 - - - - - - - -
18.03.2019 01:00:00 13,1 5,6 11 6 SSE 1008,1 - 0,0
18.03.2019 00:00:00 - - - - - - - -
17.03.2019 23:00:00 14,0 6,0 9 5 S - 10 -
17.03.2019 22:00:00 13,6 5,3 9 5 SSE 1009,0 10 -
17.03.2019 21:00:00 14,0 5,0 13 7 SSE - 10 -
17.03.2019 20:00:00 14,0 5,0 9 5 S - 10 -
17.03.2019 19:00:00 14,1 5,1 13 7 SSE 1009,5 10 0,0
17.03.2019 18:00:00 15,0 5,0 13 7 SSE - 10 -
17.03.2019 17:00:00 16,0 6,0 9 5 SSE - 9 -
17.03.2019 16:00:00 14,8 4,9 4 2 - 1010,1 9 -
17.03.2019 15:00:00 17,0 5,0 13 7 SSW - 9 -
17.03.2019 14:00:00 15,0 5,0 11 6 WNW - 9 -
17.03.2019 13:00:00 16,0 4,2 5 3 S 1012,3 9 0,0
17.03.2019 12:00:00 14,0 3,0 4 2 - - 9 -
17.03.2019 11:00:00 10,0 3,0 2 1 - - 10 -
17.03.2019 10:00:00 9,0 3,4 4 2 - 1016,7 10 -

tt = temperature
td = dewpoint
ff = wind speed
dd = wind direction
ppp = reduced air pressure
vv = visibility
rr = precipitation

Next stations